860  
ASGM40 PGUM 160610  
RWRGUM  
WEATHER ROUNDUP FOR THE MARIANAS  
NATIONAL WEATHER SERVICE TIYAN GU  
400 PM CHST SUN JUN 16 2024  
 
GUZ001>004-160700-  
MARIANA ISLANDS-  
 
CITY SKY/WX TMP DP RH WIND PRES REMARKS
 
GUAM AIRPORT NOT AVBL  
ANDERSEN AFB MOSUNNY 86 77 74 E15 29.88S HX 97  
ROTA AIRPORT MOSUNNY 86 77 74 E16 29.84F HX 97  
TINIAN AP MOSUNNY 88 77 70 E16 29.89S HX 100  
SAIPAN AP MOSUNNY 90 77 66 E15 29.88S HX 102  
 

 
 
 
 
CLICK HERE TO GO TO PREVIOUS BULLETINS.

The Nexlab GU Page Main Text Page